Regional Weather Roundup
Issued by NWS Upton, NY

Current Version | Previous Version | Text Only | Print | Product List | Glossary On
Versions: 1 2 3 4 5 6 7 8 9 10 11 12 13 14 15 16 17 18 19 20 21 22 23 24 25 26 27
000
ASUS41 KOKX 202108
RWROKX

REGIONAL WEATHER ROUNDUP
NATIONAL WEATHER SERVICE NEW YORK NY
500 PM EDT SUN AUG 20 2017

NOTE: "FAIR" INDICATES FEW OR NO CLOUDS BELOW 12,000 FEET WITH NO
SIGNIFICANT WEATHER AND/OR OBSTRUCTIONS TO VISIBILITY.

NYZ071-072-176-178-NJZ106-104-202200-
NEW YORK CITY METRO AREA

CITY           SKY/WX    TMP DP  RH WIND       PRES   REMARKS
Central Park   SUNNY     81  57  43 VRB6      30.09S
Bronx Bot Gard   N/A     82  57  42 NW6       30.09R
LaGuardia APRT MOSUNNY   83  60  45 N10       30.05S
Kennedy INTL   MOSUNNY   84  59  42 N9        30.06S
Breezy Point     N/A     81 N/A N/A NW7         N/A
Newark/Liberty PTSUNNY   85  57  38 W10G20    30.06S
Teterboro      MOSUNNY   83  59  44 NW10      30.05S
$$

NYZ177-179-078>081-202200-
LONG ISLAND NEW YORK

CITY           SKY/WX    TMP DP  RH WIND       PRES   REMARKS
Jones Beach      N/A     81 N/A N/A N12         N/A
Matinecock PT    N/A     81 N/A N/A NW6         N/A
Farmingdale    SUNNY     82  57  42 NW8G16    30.06S
MacArthur/ISP  MOSUNNY   83  60  45 W9        30.05S
Shirley        SUNNY     83  61  47 NW8       30.06R
Mt Sinai Harb    N/A     82 N/A N/A W5          N/A
Westhampton    SUNNY     82  57  42 W9        30.06S
East Hampton   FAIR      79  62  55 W7        30.04R
Montauk          N/A     80  65  59 W9        30.04R
$$

NYZ052-065-067-202200-
HUDSON VALLEY

CITY           SKY/WX    TMP DP  RH WIND       PRES   REMARKS
White Plains   MOSUNNY   80  57  45 NW8       30.07R
Larchmont Harb   N/A     79 N/A N/A NW9         N/A
Croton On Huds   N/A     84 N/A N/A NW5         N/A
Newburgh       MOSUNNY   81  63  54 W5        30.08S
Montgomery     MOSUNNY   82  58  43 W9        30.06S
Poughkeepsie   MOSUNNY   82  57  42 N7        30.04S
Albany         MOSUNNY   80  58  46 W8        30.05S
$$

NJZ001-105-106-008-010-013-015-019>022-104-202200-
NEW JERSEY

CITY           SKY/WX    TMP DP  RH WIND       PRES   REMARKS
Newark/Liberty PTSUNNY   85  57  38 W10G20    30.06S
Teterboro      MOSUNNY   83  59  44 NW10      30.05S
Caldwell       SUNNY     82  59  45 NW9       30.08S
Somerville     SUNNY     83  62  49 VRB3      30.06S
Linden         FAIR      82  58  43 NW8G16    30.07S
Perth Amboy      N/A     81 N/A N/A W7          N/A
Sussex         SUNNY     81  59  47 N6        30.09R
Andover          N/A     79  58  48 N5        30.10S
Trenton        SUNNY     82  59  45 NW9       30.08S
Millville      SUNNY     86  64  47 VRB5      30.09R
Atlantic City  SUNNY     85  62  46 W10       30.08R
Wrightstown    SUNNY     82  61  48 NW7       30.06R
Toms River     SUNNY     83  61  47 NW8       30.08S
Belmar         SUNNY     83  59  44 NW10      30.09R
$$

PAZ047>061-062-071-202200-
EASTERN PENNSYLVANIA

CITY           SKY/WX    TMP DP  RH WIND       PRES   REMARKS
Philadelphia   MOSUNNY   85  58  39 VRB6      30.09S
Allentown      SUNNY     83  61  47 NW6       30.10R
Scranton       MOSUNNY   81  59  47 NW8       30.12R
$$

CTZ002-004>006-009-010-012-RIZ004-006-007-MAZ004-011-015-202200-
SOUTHERN NEW ENGLAND
 IN CT

CITY           SKY/WX    TMP DP  RH WIND       PRES   REMARKS
Bradley INTL   MOSUNNY   83  57  41 W13       30.03S
Hartford       SUNNY     82  58  43 W8G17     30.02S
Danbury        SUNNY     81  57  43 NW7       30.08R
Wtrbury/Oxford MOSUNNY   77  57  50 NW9       30.08S
Norwalk Harbor   N/A     79 N/A N/A NW10G16     N/A
Bridgeport     MOSUNNY   83  57  41 W9        30.04S
Meriden        SUNNY     82  56  40 N12       30.04R
New Haven      MOSUNNY   82  57  42 NW8       30.04S
Chester        FAIR      81  57  44 NW9       30.05R
Groton         SUNNY     83  57  41 W9G20     30.01R
Wilimantic     SUNNY     82  58  43 NW8       30.02S

 IN RI

CITY           SKY/WX    TMP DP  RH WIND       PRES   REMARKS
Providence     MOSUNNY   83  58  42 W15       30.00S
Block Island   SUNNY     77  65  66 W13G20    30.03R
Westerly       SUNNY     83  58  42 NW8       30.02S
 IN MA

CITY           SKY/WX    TMP DP  RH WIND       PRES   REMARKS
Boston         MOSUNNY   83  54  36 W15G21    29.99R
Worcester      MOSUNNY   77  52  41 NW8       30.05R
Westfield      MOSUNNY   80  56  43 NW9       30.03R
Provincetown   SUNNY     78  62  57 N6        29.99R
Nantucket      SUNNY     76  67  73 W15       29.99R
$$

ANZ330-335-338-340-345-350-353-355-202200-
COASTAL MARINE OBSERVATIONS


STATION/POSITION TIME  SKY/WX   TEMP    WIND        PRES    VSBY  WAVE
                                AIR SEA DIR/SP/G                  HT/PER
                 (UTC)          (F)     (DEG/KT/KT) (MB)    (MI)  (FT/S)
NY HARB ENTRANCE 1950            77 76  290/ 10/ 12 1017.4          2/ 8
GREAT SOUTH BAY  2015            80 80  330/ 10/ 14   N/A
23 SSW MONTAUK P 1950            73 72              1017.3          3/ 7
15 E BARNEGAT LI 2030               78                N/A           2/ 7
HUDSON CANYON    1950            75 74  300/ 12/ 16 1017.7          3/ 5
KINGS POINT      2030            79 75  350/  7/  9 1017.9
EXECUTION ROCKS  NOT AVBL
WESTERN LI SOUND NOT AVBL
CENTRAL LI SOUND NOT AVBL
EASTERN LI SOUND NOT AVBL
ROBBINS REEF     2024                   320/  8/ 14 1018.6
$$


>>>>>>>>>>>>>>>>>>>>>>>>>>>> KEY <<<<<<<<<<<<<<<<<<<<<<<<<<<
>                                                          <
>     SKY/WX - Sky Condition/Present Weather               <
>     TMP    - Temperature in Fahrenheit                   <
>     DP     - Dew Point in Fahrenheit                     <
>     RH     - Relative Humidity in Percent                <
>     WIND   - Direction (from) and Speed in MPH           <
>     PRES   - Mean Sea Level Pressure (inches of Hg)      <
>     WCI    - Wind Chill Index                            <
>     VSB    - VISIBILITY IN MILES                         <
>     HX     - HEAT INDEX                                  <
>     TC     - TEMPERATURE IN CELSIUS                      <
>     VRB    - VARIABLE WIND DIRECTION                     <
>                                                          <
>>>>>>>>>>>>>>>>>>>>>>>>>>>> KEY <<<<<<<<<<<<<<<<<<<<<<<<<<<




USA.gov is the U.S. government's official web portal to all federal, state and local government web resources and services.